Home > Time Zones > World Clock > Weather > India > Alwar > Past weeks

Flag for India Weather past 2 weeks in Alwar, Rajasthan, India

Now
63 °F

Passing clouds.


Feels Like: 63 °F
Forecast: 40 / 68 °F
Wind: No wind

Location: Jaipur / Sanganer

Current Time: Dec 20, 2014 at 8:19:16 PM

Latest Report: Dec 20, 2014 at 7:00 PM


Visibility: 1 mi

Pressure: 30.04 "Hg

Humidity: 42%

Dew point: 39 °F

Location of AlwarLocation

Historic Weather in Alwar — Graph

°F

Alwar temperature yesterday

Maximum temperature yesterday: 73 °F (at 2:00 PM)
Minimum temperature yesterday: 46 °F (at 3:00 AM)
Average temperature yesterday: 61 °F

Past Weeks' High & Low Weather Summary

 TemperatureHumidityPressure
High82 °F (Dec 6, 2:00 PM)100% (Dec 14, 8:00 AM)30.24 "Hg (Dec 14, 8:00 AM)
Low45 °F (Dec 18, 6:00 AM)12% (Dec 11, 3:00 PM)29.71 "Hg (Dec 12, 3:00 PM)
Average62 °F54%30.08 "Hg
* Reported Dec 5 7:00 PM — Dec 20 7:00 PM, Alwar, Weather by CustomWeather, © 2014

Note: Actual official high and low records may vary slightly from our data, if they occured in-between our weather recording intervals... More about our weather records

Advertising

Alwar weather history for previous 24 hours

 ConditionsComfort  
Time TempWeatherWind HumidityBarometerVisibility
7:00 PM
Dec 20
63 °FPassing clouds.No wind42%30.04 "Hg1 mi
6:00 PM64 °FScattered clouds.No wind34%30.04 "Hg1 mi
5:00 PM72 °FScattered clouds.5 mph25%30.04 "Hg2 mi
4:30 PM73 °FScattered clouds.2 mph20%30.04 "Hg2 mi
4:00 PM73 °FScattered clouds.3 mph22%30.04 "Hg2 mi
3:00 PM73 °FScattered clouds.3 mph22%30.04 "Hg2 mi
2:30 PM73 °FScattered clouds.5 mph22%30.07 "Hg2 mi
2:00 PM72 °FScattered clouds.6 mph20%30.07 "Hg2 mi
1:00 PM70 °FScattered clouds.7 mph20%30.09 "Hg2 mi
12:00 PM68 °FScattered clouds.1 mph26%30.15 "Hg1 mi
11:00 AM66 °FScattered clouds.No wind30%30.18 "Hg1 mi
10:00 AM61 °FScattered clouds.3 mph45%30.18 "Hg1 mi
9:00 AM55 °FFog.1 mph59%30.18 "Hg1 mi
7:00 AM48 °FFog.No wind76%30.12 "Hg1 mi
6:30 AM46 °FFog.No wind87%30.12 "Hg1 mi
6:00 AM48 °FFog.No wind76%30.12 "Hg1 mi
5:30 AM50 °FFog.No wind82%30.12 "Hg1 mi
5:00 AM50 °FFog.No wind76%30.12 "Hg1 mi
4:00 AM52 °FPassing clouds.No wind82%30.12 "Hg1 mi
3:00 AM54 °FFog.No wind77%30.15 "Hg1 mi
2:00 AM54 °FPassing clouds.No wind77%30.15 "Hg1 mi
1:00 AM54 °FPassing clouds.1 mph72%30.15 "Hg1 mi
11:30 PM
Dec 19
57 °FPassing clouds.3 mph63%30.18 "Hg1 mi
11:00 PM59 °FPassing clouds.5 mph59%30.18 "Hg1 mi
10:30 PM59 °FPassing clouds.5 mph59%30.18 "Hg1 mi
10:00 PM57 °FPassing clouds.5 mph63%30.18 "Hg1 mi
9:00 PM61 °FPassing clouds.5 mph48%30.18 "Hg1 mi
8:00 PM63 °FPassing clouds.3 mph42%30.18 "Hg1 mi
Weather by CustomWeather, © 2014

See weather overviewHow to use our weather pages